Regional Weather Roundup
Issued by NWS Albany, NY

Home | Current Version | Previous Version | Graphics & Text | Print | Product List | Glossary Off
Versions: 1 2 3 4 5 6 7 8 9 10 11 12 13 14 15 16 17 18 19 20 21

000
ASUS41 KALY 300510
RWRALY

NEW YORK STATE HOURLY WEATHER ROUNDUP
NATIONAL WEATHER SERVICE ALBANY NY
100 AM EDT THU OCT 30 2014

NOTE: "FAIR" INDICATES FEW OR NO CLOUDS BELOW 12,000 FEET WITH NO
SIGNIFICANT WEATHER AND/OR NO OBSTRUCTIONS TO VISIBILITY.

NYZ032-033-038>043-046>054-057>066-NYZ062>081-300600-
EAST


CITY           SKY/WX    TMP DP  RH WIND       PRES   REMARKS
ALBANY         CLOUDY    47  42  83 CALM      29.92S
GLENS FALLS    CLOUDY    45  39  79 CALM      29.90S
POUGHKEEPSIE   FOG       42  41  96 CALM      29.93S VSB 1/4
NEWBURGH       CLEAR     43  43 100 CALM      29.95S
MONTGOMERY     FOG       38  37  97 SW3       29.94S VSB 1/4
WHITE PLAINS   PTCLDY    47  45  93 CALM      29.93S
ISLIP          MOCLDY    50  47  89 NW5       29.92F
NEW YORK CITY  PTCLDY    53  46  77 W5        29.94F
CENTRAL PARK   CLEAR     51  45  79 CALM      29.97S
$$

NYZ005>009-017-018-044>046-055-056-300600-
CENTRAL


CITY           SKY/WX    TMP DP  RH WIND       PRES   REMARKS
FULTON         HVY RAIN  45  41  86 NW7       29.94R FOG
SYRACUSE       CLOUDY    49  42  77 SW13      29.94S
ROME           CLOUDY    47  43  86 W8        29.94S
ELMIRA         CLOUDY    46  42  86 SW7       29.97R
BINGHAMTON     CLOUDY    45  37  73 NW8       29.94R
MONTICELLO     CLOUDY    43  43 100 CALM      29.94F
$$

NYZ026>034-041>043-300600-
NORTH


CITY           SKY/WX    TMP DP  RH WIND       PRES   REMARKS
WATERTOWN      CLOUDY    49  37  63 W9        29.91S
FORT DRUM      NOT AVBL
MASSENA        CLOUDY    49  39  68 W8        29.87S
SARANAC LAKE   CLOUDY    43  37  79 W7        29.83S
PLATTSBURGH    CLOUDY    49  39  68 VRB5      29.84S
$$

NYZ001>004-010>016-019>021-300600-
WEST


CITY           SKY/WX    TMP DP  RH WIND       PRES   REMARKS
NIAGARA FALLS  MOCLDY    44  37  76 NW13      29.98S
BUFFALO        FAIR      44  36  73 W5        29.98S
DUNKIRK        CLOUDY    48  38  68 NW10      30.01R
JAMESTOWN      CLOUDY    39  37  93 W5        29.99S
WELLSVILLE     LGT RAIN  41  38  89 NW5       29.98S
ROCHESTER      MOCLDY    46  37  71 W7        29.97S
PENN YAN       CLOUDY    46  39  76 W9        29.97R
$$

             KEY
       WCI = WIND CHILL INDEX
       VSB = VISIBILITY
       HX  = HEAT INDEX
$$



USA.gov is the U.S. government's official web portal to all federal, state and local government web resources and services.